Regional Weather Roundup
Issued by NWS Jackson, KY

Home | Current Version | Previous Version | Graphics & Text | Print | Product List | Glossary On
Versions: 1 2 3 4 5 6 7 8 9 10 11 12 13 14 15 16 17 18 19 20 21 22 23 24 25 26 27 28 29 30 31 32 33 34 35 36 37 38 39 40 41 42 43 44 45 46 47 48 49 50
000
ASUS43 KJKL 030210
RWRJKL

EAST KENTUCKY HOURLY WEATHER ROUNDUP
NATIONAL WEATHER SERVICE JACKSON KY
1000 PM EDT THU JUL 02 2015

NOTE: "FAIR" INDICATES FEW OR NO CLOUDS BELOW 12,000 FEET WITH
NO SIGNIFICANT WEATHER AND/OR OBSTRUCTIONS TO VISIBILITY.

* THESE REPORTS ARE NOT UNDER NWS QUALITY CONTROL AND MAY NOT
  REPORT WEATHER SUCH AS PRECIPITATION AND FOG.

KYZ079-080-083-085-087-088-110-112-115-119-120-030300
...EASTERN KENTUCKY...

CITY           SKY/WX    TMP DP  RH WIND       PRES   REMARKS
JACKSON        MOCLDY    68  66  93 CALM      29.91F
LONDON         CLOUDY    74  66  76 CALM      29.91S
SOMERSET*      CLOUDY    70  70 100 CALM      29.90S
MONTICELLO*    CLOUDY    70  70 100 CALM      29.91S
MIDDLESBORO*   LGT RAIN  71  69  95 CALM      29.94R
HARLAN APT*      N/A     68  68 100 MISG      29.94S
HAZARD APT*    HVY RAIN  70  70 100 CALM      29.92S VSB 1/2
BLACK MTN*       N/A     61  61 100 SW6         N/A
PIKEVILLE APT* CLOUDY    68  66  94 CALM      29.94S
BIG SANDY*     FOG       69  69  99 CALM      29.92S VSB 1/2
MOREHEAD APT*  CLOUDY    68  68 100 E3        29.93S
$$

KYZ035-036-041-042-044-050-067-078-099-030300
...CENTRAL KENTUCKY...

CITY           SKY/WX    TMP DP  RH WIND       PRES   REMARKS
MT STERLING*   PTCLDY    70  70 100 CALM      29.92R
FLEMING/MASON* MOCLDY    68  66  94 E5        29.91S FOG
DANVILLE*      CLOUDY    72  70  94 CALM      29.90S
RICHMOND*      CLOUDY    70  68  94 CALM      29.90R
LEXINGTON      PTCLDY    72  68  87 SE5       29.89R
FRANKFORT      CLOUDY    72  68  87 E5        29.87R
$$

KYZ091>093-OHZ055-061-077-WVZ005-015-034-035-042-030300
...SOUTHERN OHIO/WEST VIRGINIA...

CITY           SKY/WX    TMP DP  RH WIND       PRES   REMARKS
COVINGTON      LGT RAIN  69  66  90 SE9       29.90R
COLUMBUS       MOCLDY    67  61  81 NE5       29.93S
DAYTON         MOCLDY    68  62  81 NE7       29.94R
WILMINGTON     MOCLDY    67  62  84 NE6       29.92R
HUNTINGTON     MOCLDY    68  66  93 E3        29.91R
CHARLESTON     PTCLDY    67  65  93 CALM      29.92S FOG
PINEVILLE*     PTCLDY    67  67 100 MISG      30.00S FOG
BECKLEY        LGT RAIN  64  61  90 SE6       29.99S FOG
BLUEFIELD      MOCLDY    64  60  87 CALM      30.02R FOG
$$

VAZ002-007-008-TNZ017-027-036-066-071-030300
...SOUTHWEST VIRGINIA/EAST TENNESSEE...

CITY           SKY/WX    TMP DP  RH WIND       PRES   REMARKS
WISE*          CLOUDY    66  66 100 CALM      30.01R
JONESVILLE*      N/A    N/A N/A N/A MISG        N/A
ABINGDON*      CLOUDY    70  67  89 CALM      29.99R
BRISTOL        CLOUDY    70  65  84 CALM      29.96R
KNOXVILLE      CLOUDY    74  67  78 SW7       29.92R
OAK RIDGE      CLOUDY    75  69  81 CALM      29.93R
CROSSVILLE     LGT RAIN  72  68  87 W13G18    29.96S
NASHVILLE      CLOUDY    77  73  87 SW7       29.87S
$$

...KEY TO REMARKS...
VSB - VISIBILITY IN MILES
WCI - WIND CHILL INDEX
HX  - HEAT INDEX

$$


USA.gov is the U.S. government's official web portal to all federal, state and local government web resources and services.